Location: Choisy
(48.7685°N, 2.4187°E)
Time: 10:47:07
(UTC+00:00)

ATLAS 3B R/B - Pass Details

Date: 04 December 2023
Orbit: 947 x 1247 km, 63.8° (Epoch: 10 February)

Event Time Altitude Azimuth Distance (km) Brightness Sun altitude
Exits shadow 02:07:39 15° 83° (E) 2,640 5.1 -50.6°
Drops below altitude 10° 02:09:54 10° 66° (ENE) 3,062 5.6 -50.2°
Sets 02:13:42 0° 49° (NE) 4,082 6.4 -49.7°
